Other Public Products
Issued by NWS Grand Forks, ND

Home | Current Version | Previous Version | Graphics & Text | Print | Product List | Glossary On
Versions: 1 2 3 4 5 6 7 8 9 10 11 12 13 14 15 16 17 18 19 20 21 22 23 24 25 26 27 28 29 30 31 32 33 34 35 36 37 38 39 40 41 42 43 44 45 46 47 48 49 50
000
FPUS83 KFGF 171031
OPUFGF
PRAIRIE TO PINES WEATHER ROUNDUP
NATIONAL WEATHER SERVICE EASTERN NORTH DAKOTA/GRAND FORKS ND
400 AM CST TUE JAN 17 2017

 **SATELLITE DATA USED TO AUGMENT SKY COVER AT AUTOMATED STATIONS**
 *****  WEATHER ACROSS EASTERN NORTH DAKOTA  *****

CITY           SKY/WX    TMP DP  RH WIND       PRES   REMARKS
GRAND FORKS    FAIR       1  -4  79 SW3       29.98F
GRAND FORKS AF FAIR       3  -1  83 SW5       29.97F WCI  -6
GRAND CITY NWS NOT AVBL
BUXTON           N/A      6   5  94 S5          N/A  WCI  -3
DEVILS LAKE    FAIR       8   5  87 SW8       29.96S WCI  -4
FARGO          FAIR       5   1  83 S3        30.01S
WAHPETON ARPT  FAIR       1  -4  78 CALM      30.01F
$$

 *****  WEATHER ACROSS CENTRAL AND WESTERN NORTH DAKOTA  *****

CITY           SKY/WX    TMP DP  RH WIND       PRES   REMARKS
JAMESTOWN      FAIR       8   6  92 W5        29.97S WCI   0
BISMARCK       FAIR       7   2  80 CALM      30.01F
MINOT          FAIR      17  12  80 SW12      29.92F WCI   4
MINOT AFB      FAIR      17  12  80 SW7       29.91F WCI   8
GARRISON         N/A      3   0  87 SE3       29.97R
WILLISTON      FAIR       6   3  87 SW8       29.91F WCI  -7
DICKINSON      FAIR      16   7  67 SW8       29.92F WCI   5
HETTINGER      FAIR       6   2  83 NW3       29.98F
$$

 *****  OTHER OBSERVATIONS NORTHEAST NORTH DAKOTA  *****

CITY           SKY/WX    TMP DP  RH WIND       PRES   REMARKS
WALHALLA       NOT AVBL
LANGDON        NOT AVBL
CAVALIER         N/A      0  -2  92 SW5       29.95S WCI -10
GRAFTON        FAIR       0  -4  85 S6        29.98F WCI -12
CANDO          NOT AVBL
FORT TOTTEN      N/A     13  12  95 CALM      29.95S
ROLLA            N/A    N/A N/A N/A MISG        N/A
RUGBY          FOG        3   1  92 CALM      29.94F VSB 3/4
 ***** THE ABOVE OBSERVATIONS ARE NON NWS ARE NOT QUALITY
        CONTROLLED AND MAY MIS-REPORT RAIN FOR SNOW...
$$

 *****  OTHER OBSERVATIONS SOUTHEAST NORTH DAKOTA *****

CITY           SKY/WX    TMP DP  RH WIND       PRES   REMARKS
COOPERSTOWN    FAIR       5   3  92 W9        29.97S WCI  -9
VALLEY CITY    FAIR       9   9 100 SW5       29.99S WCI   0
OAKES          NOT AVBL
GWINNER        FAIR      10   9  92 W13       30.00S WCI  -5
SHEYENNE NWR     N/A     -2  -8  76 W2        29.95S
BUFFALO          N/A      6   2  86 SW8         N/A  WCI  -7
WYNDMERE         N/A      1   0  92 SW3         N/A
 ***** THE ABOVE OBSERVATIONS ARE NON NWS ARE NOT QUALITY
       CONTROLLED AND MAY MIS-REPORT RAIN FOR SNOW...
$$

  *****  WEATHER ACROSS NORTHERN MINNESOTA  *****

CITY           SKY/WX    TMP DP  RH WIND       PRES   REMARKS
FLAG ISLAND    FAIR       3   0  85 SE5       29.94F WCI  -6
WARROAD        FAIR      -2  -6  84 S3        29.95F
ROSEAU         FAIR       0  -6  78 S6        29.94F WCI -12
HALLOCK        FAIR       3   0  85 SE10      29.95S WCI -12
THF RVR FALLS  FAIR       0  -4  83 CALM      29.98  FOG
HALSTAD          N/A      0  -4  84 S6          N/A  WCI -12
FOSSTON        FAIR       0  -4  85 S5        29.96F FOG     WCI -10
BAUDETTE       FAIR      -5  -9  83 CALM      29.95F
WASKISH        FAIR      -2  -8  78 CALM      29.96F
CROOKSTON      FAIR       1  -2  85 SE8       29.99F WCI -12
$$
  *****  WEATHER ACROSS CENTRAL AND WEST MINNESOTA  *****

CITY           SKY/WX    TMP DP  RH WIND       PRES   REMARKS
BEMIDJI        FAIR      -1  -4  86 CALM      29.95F
PARK RAPIDS    CLOUDY    -1  -8  72 CALM      29.96S HAZE
WADENA         FAIR      -2  -6  84 CALM      29.97S
DETROIT LAKES  FAIR       3   1  92 CALM      29.98F
MOORHEAD       FAIR       0  -4  85 CALM      30.00F
FERGUS FALLS   FOG        3   0  85 CALM      30.05F VSB 1/2
ELBOW LAKE     FAIR       3   1  90 CALM      29.99F
MORRIS MN      FAIR       7   3  85 CALM      30.00S
STAPLES        FOG        0  -4  85 CALM      29.97F VSB<1/4
WHEATON        FAIR      12  10  92 CALM      30.03F
$$
  *****  WEATHER ELSEWHERE ACROSS MINNESOTA  *****

CITY           SKY/WX    TMP DP  RH WIND       PRES   REMARKS
DULUTH         FAIR      18  14  84 CALM      29.95F
INTRNTL FALLS  FAIR      -3  -9  75 CALM      29.96F
ELY            FAIR      -2  -6  84 CALM      29.95F
CLOQUET        FAIR      18  14  86 CALM      29.94F
BRAINERD       FOG        9   8  96 CALM      29.96F VSB 1/4
HIBBING        MOCLDY    -5  -9  83 NW5       29.95F WCI -16
ALEXANDRIA     FAIR       7   5  91 CALM      29.97F FOG
SAINT CLOUD    MOCLDY    22  22 100 N6        29.95F FOG     WCI  14
MINNEAPOLIS    LGT SNOW  30  27  88 N8        29.94S FOG     WCI  22
$$

  *****  WEATHER ACROSS SOUTH DAKOTA  *****

CITY           SKY/WX    TMP DP  RH WIND       PRES   REMARKS
SIOUX FALLS    CLOUDY    16  15  96 W3        30.00R FOG
BROOKINGS      FAIR       6   4  91 NW5       29.99R WCI  -3
WATERTOWN      FAIR      -1  -6  79 CALM      29.98F
HURON          FAIR       2   0  91 CALM      30.04F
SISSETON         N/A      3   1  91 CALM      30.00F
ABERDEEN       FAIR       0  -5  79 W6        30.02F WCI -12
MITCHELL       FAIR      10   7  87 W7        30.07R WCI  -1
PIERRE         FAIR      12   9  87 SW7       30.02F WCI   1
MOBRIDGE       FAIR      11   6  81 N8        29.99S WCI  -1
RAPID CITY     FAIR      14   8  77 CALM      30.00F
$$

  *****  SOME WEATHER IN NEARBY STATES *****

CITY           SKY/WX    TMP DP  RH WIND       PRES   REMARKS
GLASGOW MT     FAIR       9   4  80 E10       29.83F WCI  -5
GREAT FALLS MT FAIR      36  15  42 SW30      29.83F
CHEYENNE WY    FAIR      17  10  74 W9        30.03F WCI   6
SCOTTSBLUFF NE FAIR      18  12  77 NW8       30.07S WCI   8
OMAHA NE       CLOUDY    30  26  85 NW13      30.01S WCI  20
DES MOINES IA  CLOUDY    34  32  92 NW12      29.93R
DAVENPORT IA   CLOUDY    34  33  96 W7        29.84R FOG
CHICAGO IL     CLOUDY    38  38 100 NW5       29.72S
EAU CLAIRE WI  LGT SNOW  33  32  96 NE3       29.89F FOG
LA CROSSE WI   CLOUDY    36  33  89 NW8       29.87S FOG
$$

  *****  SOME NATIONAL WEATHER *****

CITY           SKY/WX    TMP DP  RH WIND       PRES   REMARKS
LA GUARDIA NY  CLOUDY    42  28  57 W8        30.22F
RALEIGH NC     FOG       48  46  93 SW7       30.24F VSB 3/4
ATLANTA GA     MOCLDY    55  54  96 CALM      30.20F FOG
NEW ORLEANS LA MOCLDY    65  65 100 SE6       30.10F
OKLAHOMA CITY  CLOUDY    36  33  89 NW10      30.11S
ALBUQUERQUE NM CLOUDY    40  35  83 E9        30.11S
SALT LAKE CITY FAIR      21  16  81 SE3       30.28S
LOS ANGELES CA FAIR      51  50  96 CALM      30.06S
BOISE ID       FAIR       1  -2  87 CALM      30.36F FOG
SEATTLE WA     CLOUDY    41  34  76 CALM      29.91S
$$

*** WEATHER ACROSS MANITOBA...SASKATCHEWAN AND ONTARIO ***
                ***ONTARIO***

CITY           SKY/WX    TMP DP  RH WIND       PRES   REMARKS
GERALDTON      CLOUDY    16  14  93 VRB2      30.03S
THUNDER BAY    CLOUDY    23  19  86 SW5       30.03F WCI  17
SIOUX LOOKOUT  CLEAR      9   5  85 S6        29.93F WCI  -1
TORONTO        FRZ RAIN  34  30  86 E3        30.12F
BIG TROUT LK   CLEAR     16  14  93 S13       29.83F WCI   2
PICKLE LAKE    NOT AVBL
DRYDEN         CLEAR     12  12 100 S7        29.92F WCI   2
KENORA         CLEAR     10   7  85 SW5       29.93S WCI   2
$$
                *** MANITOBA***

CITY           SKY/WX    TMP DP  RH WIND       PRES   REMARKS
BRANDON        CLEAR      5   1  85 W7        29.89F WCI  -7
DAUPHIN        CLEAR     34  21  60 SW16G22   29.77F WCI  23
ISLAND LAKE    MOCLDY    27  21  80 S8        29.71F WCI  18
PILOT MOUND      N/A      9   7  92 SW5         N/A  WCI   0
THE PAS        PTCLDY    28  19  69 S10       29.54F WCI  19
THOMPSON       MOCLDY    30  25  80 SW12G17   29.45F WCI  21
WINNIPEG       CLEAR      7   3  85 S9        29.93F WCI  -7
LYNN LAKE      PTCLDY    28  25  86 SW9       29.32F WCI  20
CHURCHILL      CRYSTALS  25  23  93 SW14G21   29.29F WCI  13
GILLAM         PTCLDY    30  25  80 SW14G21   29.46S WCI  20
$$
                ***SASKATCHEWAN***

CITY           SKY/WX    TMP DP  RH WIND       PRES   REMARKS
ESTEVAN        PTCLDY    18  10  73 SW17      29.85F WCI   2
KINDERSLEY     PTCLDY    28  23  80 S17       29.48F WCI  16
LLOYDMINSTER   CLOUDY    30  23  74 SW15      29.37F WCI  19
PRINCE ALBERT  CLOUDY    27  18  69 S6        29.49F WCI  20
REGINA         PTCLDY    18  12  79 S15       29.71F WCI   3
YORKTON        CLEAR     23  18  80 S15       29.71F WCC1F1C2F2C3F3C4F4C5F5C6F6C7F7C8F8C9F9CaFaCbFbCcFcCdFdCe!



USA.gov is the U.S. government's official web portal to all federal, state and local government web resources and services.